User: anonymous
Location: Pulvis Stellarum Observatory
(41.6962°N, 71.4263°W)
Time: 11:10:35
(UTC-04:00)
Language:

Cosmos 1758 - Orbit

View from above orbital plane
View from above orbital plane
View from above satellite
View from above satellite

Ground track
Ground track

The orbit data is extracted from the following two-line orbital elements,

1 16791U 86046A   14293.08203039  .00004034  00000-0  30880-3 0  1649
2 16791 082.4700 256.8645 0019180 144.2224 216.0290 15.01500473539767
Epoch (UTC): 20 October 2014 01:58:07
Eccentricity: 0.0019180
inclination: 82.4700°
perigee height: 549 km
apogee height: 575 km
right ascension of ascending node: 256.8645°
argument of perigee: 144.2224°
revolutions per day: 15.01500473
mean anomaly at epoch: 216.0290°
orbit number at epoch: 53976

The dashed part of the orbit path shows where the satellite is in the earth's shadow,  

DLR